RA73750 UHPP-ULLI

Flight info

Callsign RA73750
Flight time N/A
Altitude 39999
Route BAKEN A812 OLEGA T411 LABAR M131 NRM L168 RIGNI M58 ARGIP T821 ROGID M856 GIKUR T458 BEPOL
Aircraft C750/M-SABDGRWY/H

Departure

Time 2026-04-20 15:19
Airport Yelizovo Airport (UHPP)

Arrival

Time N/A
Airport Pulkovo Airport (ULLI)
Time Latitude Longitude Altitude Speed Heading
2026-04-20 14:53 53.17071 158.42656 133 ft 0 kts 62°
2026-04-20 15:10 53.17074 158.42665 133 ft 3 kts 62°
2026-04-20 15:11 53.17069 158.42706 133 ft 7 kts 142°
2026-04-20 15:11 53.17024 158.42783 133 ft 10 kts 78°
2026-04-20 15:11 53.17060 158.42888 133 ft 11 kts 58°
2026-04-20 15:11 53.17102 158.43001 133 ft 12 kts 60°
2026-04-20 15:12 53.17145 158.43128 133 ft 13 kts 60°
2026-04-20 15:12 53.17191 158.43265 133 ft 14 kts 60°
2026-04-20 15:12 53.17241 158.43413 133 ft 15 kts 60°
2026-04-20 15:12 53.17296 158.43569 133 ft 16 kts 60°
2026-04-20 15:13 53.17352 158.43732 133 ft 17 kts 60°
2026-04-20 15:13 53.17413 158.43904 133 ft 17 kts 60°
2026-04-20 15:13 53.17469 158.44079 133 ft 17 kts 66°
2026-04-20 15:13 53.17517 158.44268 133 ft 17 kts 69°
2026-04-20 15:14 53.17453 158.44394 133 ft 16 kts 158°
2026-04-20 15:14 53.17346 158.44470 133 ft 17 kts 156°
2026-04-20 15:14 53.17232 158.44552 133 ft 18 kts 156°
2026-04-20 15:14 53.17111 158.44631 133 ft 19 kts 160°
2026-04-20 15:15 53.16985 158.44718 133 ft 20 kts 157°
2026-04-20 15:15 53.16856 158.44809 133 ft 21 kts 157°
2026-04-20 15:15 53.16721 158.44902 133 ft 21 kts 158°
2026-04-20 15:15 53.16581 158.44998 133 ft 22 kts 158°
2026-04-20 15:16 53.16437 158.45096 133 ft 23 kts 158°
2026-04-20 15:16 53.16288 158.45198 133 ft 23 kts 157°
2026-04-20 15:16 53.16135 158.45304 133 ft 24 kts 158°
2026-04-20 15:16 53.16074 158.45452 134 ft 9 kts 70°
2026-04-20 15:17 53.16078 158.45471 134 ft 0 kts 70°
2026-04-20 15:17 53.16082 158.45489 134 ft 3 kts 70°
2026-04-20 15:17 53.16092 158.45541 133 ft 7 kts 71°
2026-04-20 15:18 53.16116 158.45612 133 ft 7 kts 26°
2026-04-20 15:18 53.16154 158.45602 133 ft 3 kts 338°
2026-04-20 15:18 53.16195 158.45575 133 ft 14 kts 338°
2026-04-20 15:18 53.16460 158.45396 129 ft 81 kts 337°
2026-04-20 15:19 53.17195 158.44884 149 ft 137 kts 338°
2026-04-20 15:19 53.18063 158.44257 568 ft 138 kts 336°
2026-04-20 15:19 53.18945 158.43591 1017 ft 142 kts 336°
2026-04-20 15:19 53.19872 158.42918 1438 ft 149 kts 338°
2026-04-20 15:20 53.20862 158.42264 1890 ft 159 kts 338°
2026-04-20 15:20 53.21930 158.41542 2337 ft 173 kts 337°
2026-04-20 15:20 53.23100 158.40734 2781 ft 190 kts 337°
2026-04-20 15:20 53.24377 158.39852 3235 ft 207 kts 337°
2026-04-20 15:21 53.25766 158.38893 3699 ft 224 kts 338°
2026-04-20 15:21 53.27276 158.37849 4005 ft 247 kts 338°
2026-04-20 15:21 53.28897 158.36727 4663 ft 252 kts 338°
2026-04-20 15:21 53.30503 158.35614 5415 ft 255 kts 338°
2026-04-20 15:22 53.32155 158.34469 6113 ft 259 kts 338°
2026-04-20 15:22 53.33840 158.33301 6810 ft 264 kts 338°
2026-04-20 15:22 53.35521 158.32054 7576 ft 266 kts 333°
2026-04-20 15:22 53.37109 158.30438 8389 ft 267 kts 326°
2026-04-20 15:23 53.38647 158.28679 9217 ft 269 kts 325°
2026-04-20 15:23 53.40235 158.26951 9980 ft 273 kts 327°
2026-04-20 15:23 53.41876 158.25230 10368 ft 289 kts 327°
2026-04-20 15:23 53.43657 158.23334 10401 ft 316 kts 327°
2026-04-20 15:24 53.45571 158.21270 10576 ft 334 kts 327°
2026-04-20 15:24 53.47494 158.19201 11315 ft 333 kts 327°
2026-04-20 15:24 53.49456 158.17097 11903 ft 337 kts 327°
2026-04-20 15:24 53.51446 158.14957 12515 ft 341 kts 327°
2026-04-20 15:25 53.53453 158.12794 13133 ft 344 kts 328°
2026-04-20 15:25 53.55477 158.10609 13742 ft 347 kts 328°
2026-04-20 15:25 53.57513 158.08412 14293 ft 349 kts 328°
2026-04-20 15:25 53.59575 158.06183 14858 ft 351 kts 328°
2026-04-20 15:26 53.61639 158.03950 15400 ft 354 kts 328°
2026-04-20 15:26 53.63715 158.01700 15936 ft 356 kts 328°
2026-04-20 15:26 53.65785 157.99460 16466 ft 358 kts 329°
2026-04-20 15:26 53.67961 157.97387 16968 ft 361 kts 332°
2026-04-20 15:27 53.70084 157.95356 17545 ft 363 kts 331°
2026-04-20 15:27 53.72044 157.93439 18028 ft 366 kts 331°
2026-04-20 15:27 53.74263 157.91301 18562 ft 368 kts 332°
2026-04-20 15:27 53.76514 157.89162 19055 ft 371 kts 332°
2026-04-20 15:28 53.78772 157.87000 19545 ft 374 kts 332°
2026-04-20 15:28 53.81007 157.84825 20045 ft 377 kts 332°
2026-04-20 15:28 53.83282 157.82589 20558 ft 379 kts 332°
2026-04-20 15:28 53.85583 157.80338 21048 ft 383 kts 332°
2026-04-20 15:29 53.87900 157.78083 21568 ft 386 kts 332°
2026-04-20 15:29 53.90242 157.75793 22070 ft 389 kts 332°
2026-04-20 15:29 53.92591 157.73486 22565 ft 392 kts 332°
2026-04-20 15:29 53.94966 157.71154 23070 ft 395 kts 332°
2026-04-20 15:30 53.97324 157.68839 23559 ft 398 kts 332°
2026-04-20 15:30 53.99736 157.66467 23982 ft 401 kts 332°
2026-04-20 15:30 54.02164 157.64073 24406 ft 404 kts 332°
2026-04-20 15:30 54.04616 157.61653 24839 ft 407 kts 332°
2026-04-20 15:31 54.07077 157.59223 25270 ft 410 kts 332°
2026-04-20 15:31 54.09556 157.56771 25678 ft 414 kts 332°
2026-04-20 15:31 54.12063 157.54286 26094 ft 417 kts 332°
2026-04-20 15:31 54.14579 157.51808 26501 ft 420 kts 332°
2026-04-20 15:32 54.16958 157.49474 26879 ft 423 kts 332°
2026-04-20 15:32 54.19439 157.47027 27299 ft 426 kts 332°
2026-04-20 15:32 54.21941 157.44546 27717 ft 429 kts 332°
2026-04-20 15:32 54.24537 157.41972 28128 ft 432 kts 332°
2026-04-20 15:33 54.27070 157.39464 28541 ft 435 kts 332°
2026-04-20 15:33 54.29618 157.36935 28960 ft 438 kts 332°
2026-04-20 15:33 54.32186 157.34379 29345 ft 441 kts 332°
2026-04-20 15:33 54.34773 157.31800 29733 ft 445 kts 332°
2026-04-20 15:34 54.37422 157.29157 30134 ft 448 kts 332°
2026-04-20 15:34 54.40052 157.26531 30478 ft 451 kts 332°
2026-04-20 15:34 54.42744 157.23839 30836 ft 453 kts 332°
2026-04-20 15:34 54.45404 157.21173 31159 ft 455 kts 332°
2026-04-20 15:35 54.47975 157.18589 31723 ft 451 kts 332°
2026-04-20 15:35 54.50641 157.15908 32262 ft 450 kts 332°
2026-04-20 15:35 54.53311 157.13224 32724 ft 450 kts 332°
2026-04-20 15:35 54.55918 157.10596 33216 ft 448 kts 332°
2026-04-20 15:36 54.58516 157.07969 33730 ft 447 kts 332°
2026-04-20 15:36 54.61117 157.05339 34223 ft 446 kts 332°
2026-04-20 15:36 54.63757 157.02667 34634 ft 445 kts 332°
2026-04-20 15:36 54.66398 156.99990 35011 ft 445 kts 332°
2026-04-20 15:37 54.68993 156.97354 35393 ft 445 kts 332°
2026-04-20 15:37 54.71624 156.94677 35788 ft 445 kts 331°
2026-04-20 15:37 54.74176 156.92078 36166 ft 445 kts 331°
2026-04-20 15:37 54.76764 156.89438 36550 ft 445 kts 331°
2026-04-20 15:38 54.79448 156.86694 36956 ft 445 kts 331°
2026-04-20 15:38 54.82000 156.84083 37341 ft 445 kts 331°
2026-04-20 15:38 54.84590 156.81430 37731 ft 445 kts 331°
2026-04-20 15:38 54.87185 156.78766 38134 ft 445 kts 330°
2026-04-20 15:39 54.89816 156.76062 38542 ft 445 kts 330°
2026-04-20 15:39 54.92462 156.73342 38901 ft 445 kts 330°
2026-04-20 15:39 54.95011 156.70717 39204 ft 445 kts 330°
2026-04-20 15:39 54.97637 156.68007 39524 ft 445 kts 330°
2026-04-20 15:40 55.00272 156.65282 39824 ft 446 kts 330°
2026-04-20 15:40 55.02859 156.62596 40099 ft 447 kts 330°
2026-04-20 15:40 55.05432 156.59920 40066 ft 456 kts 330°
2026-04-20 15:41 55.10856 156.54275 40090 ft 472 kts 330°
2026-04-20 15:41 55.15423 156.49503 40092 ft 484 kts 330°
2026-04-20 15:42 55.22294 156.42335 40094 ft 497 kts 330°
2026-04-20 15:42 55.28229 156.36102 40094 ft 494 kts 330°
2026-04-20 15:43 55.34129 156.29899 40092 ft 493 kts 330°
2026-04-20 15:43 55.37034 156.26832 40076 ft 482 kts 330°
2026-04-20 15:43 55.39877 156.23824 40081 ft 473 kts 330°
2026-04-20 15:44 55.45446 156.17893 40085 ft 467 kts 329°
2026-04-20 15:44 55.50998 156.11958 40085 ft 467 kts 329°
2026-04-20 15:45 55.55647 156.06975 40089 ft 470 kts 329°
2026-04-20 15:45 55.61249 156.00947 40093 ft 471 kts 329°
2026-04-20 15:46 55.66856 155.94896 40094 ft 472 kts 329°
2026-04-20 15:46 55.72463 155.88823 40090 ft 472 kts 329°
2026-04-20 15:47 55.78041 155.82762 40087 ft 472 kts 329°
2026-04-20 15:47 55.83648 155.76648 40081 ft 473 kts 329°
2026-04-20 15:48 55.89270 155.70497 40080 ft 474 kts 329°
2026-04-20 15:48 55.94896 155.64321 40079 ft 474 kts 329°
2026-04-20 15:49 56.00483 155.58165 40076 ft 474 kts 329°
2026-04-20 15:49 56.06108 155.51947 40074 ft 474 kts 329°
2026-04-20 15:50 56.11693 155.45752 40068 ft 474 kts 329°
2026-04-20 15:50 56.17299 155.39512 40072 ft 474 kts 329°
2026-04-20 15:51 56.22940 155.33307 40066 ft 474 kts 329°
2026-04-20 15:51 56.28587 155.27145 40066 ft 474 kts 329°
2026-04-20 15:52 56.34101 155.21048 40063 ft 463 kts 329°
2026-04-20 15:52 56.39610 155.14980 40066 ft 463 kts 329°
2026-04-20 15:53 56.47879 155.05798 40064 ft 465 kts 329°
2026-04-20 15:53 56.53356 154.99694 40070 ft 465 kts 329°
2026-04-20 15:54 56.58862 154.93538 40071 ft 465 kts 329°
2026-04-20 15:54 56.64373 154.87354 40068 ft 464 kts 329°
2026-04-20 15:55 56.69867 154.81167 40070 ft 464 kts 329°
2026-04-20 15:55 56.75320 154.75006 40068 ft 464 kts 329°
2026-04-20 15:56 56.80802 154.68790 40069 ft 463 kts 329°
2026-04-20 15:56 56.86280 154.62557 40072 ft 463 kts 329°
2026-04-20 15:57 56.91755 154.56306 40072 ft 463 kts 329°
2026-04-20 15:57 56.97225 154.50038 40072 ft 463 kts 329°
2026-04-20 15:58 57.02648 154.43803 40076 ft 463 kts 329°
2026-04-20 15:58 57.08103 154.37508 40077 ft 462 kts 329°
2026-04-20 15:59 57.13546 154.31206 40081 ft 462 kts 329°
2026-04-20 15:59 57.18960 154.24915 40081 ft 462 kts 329°
2026-04-20 16:00 57.24385 154.18524 40085 ft 461 kts 328°
2026-04-20 16:00 57.29776 154.12093 40086 ft 461 kts 328°
2026-04-20 16:01 57.35164 154.05686 40091 ft 460 kts 328°
2026-04-20 16:01 57.40551 153.99228 40095 ft 460 kts 328°
2026-04-20 16:02 57.45883 153.92834 40095 ft 459 kts 328°
2026-04-20 16:02 57.51247 153.86365 40098 ft 459 kts 328°
2026-04-20 16:03 57.56414 153.80119 40110 ft 458 kts 328°
2026-04-20 16:03 57.61593 153.73833 40113 ft 458 kts 328°
2026-04-20 16:04 57.66852 153.67431 40114 ft 458 kts 328°
2026-04-20 16:04 57.72026 153.61107 40111 ft 458 kts 328°
2026-04-20 16:05 57.77207 153.54756 40130 ft 458 kts 328°
2026-04-20 16:05 57.82413 153.48356 40136 ft 458 kts 328°
2026-04-20 16:06 57.87639 153.41954 40142 ft 458 kts 328°
2026-04-20 16:06 57.92813 153.35564 40148 ft 458 kts 328°
2026-04-20 16:07 57.98066 153.29071 40149 ft 457 kts 328°
2026-04-20 16:07 58.03130 153.22782 40153 ft 457 kts 328°
2026-04-20 16:08 58.08354 153.16273 40155 ft 456 kts 328°
2026-04-20 16:08 58.13521 153.09814 40162 ft 457 kts 328°
2026-04-20 16:09 58.18674 153.03341 40165 ft 458 kts 327°
2026-04-20 16:09 58.23731 152.96541 40175 ft 459 kts 327°
2026-04-20 16:10 58.28865 152.89734 40176 ft 460 kts 326°
2026-04-20 16:10 58.33984 152.82834 40182 ft 462 kts 326°
2026-04-20 16:11 58.38941 152.76196 40189 ft 463 kts 326°
2026-04-20 16:11 58.44084 152.69233 40191 ft 464 kts 326°
2026-04-20 16:12 58.49234 152.62268 40188 ft 466 kts 326°
2026-04-20 16:12 58.54384 152.55258 40197 ft 466 kts 326°
2026-04-20 16:13 58.59568 152.48390 40189 ft 466 kts 328°
2026-04-20 16:13 58.64856 152.41619 40199 ft 467 kts 327°
2026-04-20 16:14 58.70143 152.34816 40199 ft 467 kts 327°
2026-04-20 16:14 58.75436 152.28005 40199 ft 468 kts 327°
2026-04-20 16:15 58.80628 152.21226 40200 ft 468 kts 327°
2026-04-20 16:15 58.85969 152.14276 40208 ft 468 kts 327°
2026-04-20 16:16 58.91147 152.07477 40209 ft 468 kts 327°
2026-04-20 16:16 58.96353 152.00642 40211 ft 468 kts 327°
2026-04-20 16:17 59.01564 151.93759 40215 ft 469 kts 327°
2026-04-20 16:17 59.06902 151.86691 40224 ft 469 kts 327°
2026-04-20 16:18 59.12185 151.79684 40226 ft 469 kts 327°
2026-04-20 16:18 59.17447 151.72776 40229 ft 470 kts 327°
2026-04-20 16:19 59.22684 151.65806 40228 ft 470 kts 327°
2026-04-20 16:19 59.27940 151.58829 40226 ft 471 kts 327°
2026-04-20 16:20 59.33248 151.51729 40225 ft 471 kts 327°
2026-04-20 16:20 59.38524 151.44705 40228 ft 471 kts 327°
2026-04-20 16:21 59.43845 151.37561 40222 ft 472 kts 327°
2026-04-20 16:21 59.49108 151.30488 40223 ft 472 kts 327°
2026-04-20 16:22 59.54455 151.23262 40212 ft 472 kts 326°
2026-04-20 16:22 59.59647 151.16224 40212 ft 473 kts 326°
2026-04-20 16:23 59.64934 151.08995 40209 ft 473 kts 326°
2026-04-20 16:23 59.70083 151.01669 40211 ft 473 kts 326°
2026-04-20 16:24 59.75409 150.94231 40207 ft 474 kts 326°
2026-04-20 16:24 59.80564 150.86903 40214 ft 474 kts 325°
2026-04-20 16:25 59.85802 150.79488 40214 ft 474 kts 326°
2026-04-20 16:25 59.91054 150.71996 40218 ft 474 kts 326°
2026-04-20 16:26 59.96396 150.64798 40212 ft 474 kts 326°
2026-04-20 16:26 60.01673 150.57546 40215 ft 474 kts 327°
2026-04-20 16:27 60.07016 150.50300 40216 ft 474 kts 327°
2026-04-20 16:27 60.12357 150.42935 40219 ft 475 kts 327°
2026-04-20 16:28 60.17651 150.35675 40226 ft 476 kts 327°
2026-04-20 16:28 60.22967 150.28315 40229 ft 477 kts 327°
2026-04-20 16:29 60.28237 150.21013 40236 ft 477 kts 327°
2026-04-20 16:29 60.33442 150.13763 40245 ft 477 kts 326°
2026-04-20 16:30 60.38760 150.06340 40248 ft 477 kts 326°
2026-04-20 16:30 60.44021 149.98962 40258 ft 477 kts 326°
2026-04-20 16:31 60.48424 149.92768 40260 ft 478 kts 327°
2026-04-20 16:31 60.54703 149.83904 40274 ft 478 kts 326°
2026-04-20 16:32 60.59056 149.77730 40273 ft 479 kts 326°
2026-04-20 16:32 60.65285 149.68865 40285 ft 479 kts 326°
2026-04-20 16:33 60.70628 149.61222 40286 ft 479 kts 326°
2026-04-20 16:33 60.75926 149.53615 40290 ft 479 kts 326°
2026-04-20 16:34 60.81253 149.45933 40299 ft 479 kts 326°
2026-04-20 16:34 60.85757 149.39415 40306 ft 480 kts 326°
2026-04-20 16:35 60.91876 149.30520 40314 ft 480 kts 326°
2026-04-20 16:35 60.96331 149.24018 40315 ft 480 kts 326°
2026-04-20 16:36 61.01654 149.16218 40313 ft 480 kts 325°
2026-04-20 16:36 61.06897 149.08505 40318 ft 480 kts 325°
2026-04-20 16:37 61.12238 149.00614 40319 ft 481 kts 325°
2026-04-20 16:37 61.17577 148.92695 40319 ft 481 kts 325°
2026-04-20 16:38 61.22849 148.84861 40318 ft 481 kts 325°
2026-04-20 16:38 61.28176 148.76898 40320 ft 481 kts 325°
2026-04-20 16:39 61.33372 148.69106 40310 ft 482 kts 325°
2026-04-20 16:39 61.36140 148.64942 40192 ft 481 kts 324°
2026-04-20 16:39 61.38719 148.61051 40314 ft 477 kts 324°
2026-04-20 16:40 61.44024 148.53024 40320 ft 475 kts 324°
2026-04-20 16:40 61.49161 148.45219 40312 ft 473 kts 324°
2026-04-20 16:41 61.54362 148.37275 40314 ft 472 kts 324°
2026-04-20 16:41 61.59504 148.29348 40310 ft 472 kts 324°
2026-04-20 16:42 61.64596 148.21493 40315 ft 472 kts 324°
2026-04-20 16:42 61.69809 148.13399 40320 ft 472 kts 324°
2026-04-20 16:43 61.74958 148.05382 40325 ft 473 kts 323°
2026-04-20 16:43 61.80118 147.97306 40329 ft 475 kts 323°
2026-04-20 16:44 61.85344 147.89095 40333 ft 476 kts 323°
2026-04-20 16:44 61.90502 147.80954 40341 ft 477 kts 323°
2026-04-20 16:45 61.95662 147.72776 40345 ft 477 kts 323°
2026-04-20 16:45 62.00896 147.64444 40345 ft 477 kts 323°
2026-04-20 16:46 62.06055 147.56196 40346 ft 477 kts 323°
2026-04-20 16:46 62.11203 147.47928 40347 ft 477 kts 323°
2026-04-20 16:47 62.16393 147.39558 40348 ft 477 kts 323°
2026-04-20 16:47 62.21586 147.31143 40349 ft 477 kts 323°
2026-04-20 16:48 62.26712 147.22803 40350 ft 477 kts 322°
2026-04-20 16:48 62.31837 147.14428 40352 ft 477 kts 322°
2026-04-20 16:49 62.36922 147.06081 40351 ft 477 kts 322°
2026-04-20 16:49 62.42133 146.97488 40351 ft 477 kts 322°
2026-04-20 16:50 62.47160 146.89164 40353 ft 477 kts 322°
2026-04-20 16:50 62.52263 146.80676 40352 ft 477 kts 322°
2026-04-20 16:51 62.57497 146.71930 40354 ft 477 kts 322°
2026-04-20 16:51 62.62664 146.63257 40353 ft 477 kts 322°
2026-04-20 16:52 62.67707 146.54755 40360 ft 477 kts 322°
2026-04-20 16:52 62.72831 146.46114 40362 ft 477 kts 322°
2026-04-20 16:53 62.77935 146.37450 40362 ft 478 kts 322°
2026-04-20 16:53 62.83047 146.28740 40359 ft 478 kts 322°
2026-04-20 16:54 62.88133 146.20033 40362 ft 478 kts 321°
2026-04-20 16:54 62.93257 146.11222 40361 ft 478 kts 321°
2026-04-20 16:55 62.98361 146.02405 40361 ft 479 kts 321°
2026-04-20 16:55 63.03474 145.93532 40365 ft 479 kts 321°
2026-04-20 16:56 63.08560 145.84688 40365 ft 479 kts 321°
2026-04-20 16:56 63.13705 145.75700 40363 ft 479 kts 321°
2026-04-20 16:57 63.18783 145.66784 40367 ft 479 kts 321°
2026-04-20 16:57 63.23870 145.57817 40372 ft 479 kts 321°
2026-04-20 16:58 63.28978 145.48765 40375 ft 479 kts 321°
2026-04-20 16:58 63.34075 145.39693 40379 ft 479 kts 321°
2026-04-20 16:59 63.39086 145.30665 40381 ft 479 kts 321°
2026-04-20 16:59 63.44161 145.21515 40379 ft 479 kts 321°
2026-04-20 17:00 63.51709 145.07797 40379 ft 479 kts 320°
2026-04-20 17:01 63.56798 144.98505 40376 ft 479 kts 320°
2026-04-20 17:01 63.61794 144.89331 40373 ft 480 kts 320°
2026-04-20 17:02 63.66848 144.80013 40377 ft 480 kts 320°
2026-04-20 17:02 63.71911 144.70627 40373 ft 481 kts 320°
2026-04-20 17:03 63.76984 144.61183 40377 ft 481 kts 320°
2026-04-20 17:03 63.81958 144.51876 40368 ft 481 kts 320°
2026-04-20 17:04 63.87019 144.42362 40364 ft 481 kts 320°
2026-04-20 17:04 63.92020 144.32916 40359 ft 481 kts 320°
2026-04-20 17:05 63.97054 144.23360 40343 ft 482 kts 320°
2026-04-20 17:05 64.02068 144.13797 40337 ft 482 kts 320°
2026-04-20 17:06 64.07033 144.04282 40339 ft 482 kts 319°
2026-04-20 17:06 64.12119 143.94512 40332 ft 482 kts 320°
2026-04-20 17:07 64.17100 143.84902 40332 ft 482 kts 319°
2026-04-20 17:07 64.22081 143.75236 40328 ft 482 kts 319°
2026-04-20 17:08 64.27093 143.65474 40332 ft 482 kts 319°
2026-04-20 17:08 64.32054 143.55783 40333 ft 481 kts 319°
2026-04-20 17:09 64.36994 143.46079 40335 ft 481 kts 319°
2026-04-20 17:09 64.41981 143.36236 40335 ft 481 kts 319°
2026-04-20 17:10 64.46845 143.26593 40343 ft 481 kts 319°
2026-04-20 17:10 64.51814 143.16687 40344 ft 481 kts 319°
2026-04-20 17:11 64.56668 143.06613 40345 ft 480 kts 315°
2026-04-20 17:11 64.61334 142.95888 40352 ft 480 kts 315°
2026-04-20 17:12 64.65993 142.85397 40352 ft 481 kts 315°
2026-04-20 17:12 64.70716 142.74523 40357 ft 481 kts 315°
2026-04-20 17:13 64.75350 142.63911 40363 ft 481 kts 315°
2026-04-20 17:13 64.79982 142.53186 40367 ft 481 kts 315°
2026-04-20 17:14 64.84655 142.42341 40367 ft 482 kts 315°
2026-04-20 17:14 64.89312 142.31465 40365 ft 482 kts 315°
2026-04-20 17:15 64.93929 142.20630 40364 ft 482 kts 315°
2026-04-20 17:15 64.98567 142.09691 40358 ft 482 kts 315°
2026-04-20 17:16 65.03210 141.98717 40357 ft 482 kts 315°
2026-04-20 17:16 65.07796 141.87883 40356 ft 482 kts 314°
2026-04-20 17:17 65.12459 141.76753 40358 ft 482 kts 314°
2026-04-20 17:17 65.17021 141.65854 40357 ft 482 kts 314°
2026-04-20 17:18 65.21667 141.54656 40357 ft 482 kts 314°
2026-04-20 17:18 65.26217 141.43664 40359 ft 482 kts 314°
2026-04-20 17:19 65.30097 141.34226 40353 ft 482 kts 314°
2026-04-20 17:19 65.35429 141.21204 40357 ft 483 kts 314°
2026-04-20 17:20 65.39957 141.10078 40359 ft 483 kts 314°
2026-04-20 17:20 65.43790 141.00615 40358 ft 483 kts 314°
2026-04-20 17:21 65.48371 140.89251 40351 ft 483 kts 314°
2026-04-20 17:21 65.52902 140.77951 40338 ft 483 kts 313°
2026-04-20 17:22 65.57451 140.66544 40330 ft 483 kts 313°
2026-04-20 17:22 65.61979 140.55129 40324 ft 482 kts 313°
2026-04-20 17:23 65.66543 140.43562 40311 ft 482 kts 313°
2026-04-20 17:23 65.71040 140.32101 40304 ft 481 kts 313°
2026-04-20 17:24 65.75561 140.20518 40296 ft 481 kts 313°
2026-04-20 17:24 65.79980 140.09134 40293 ft 480 kts 313°
2026-04-20 17:25 65.84464 139.97520 40301 ft 481 kts 313°
2026-04-20 17:25 65.88985 139.85744 40291 ft 481 kts 313°
2026-04-20 17:26 65.93429 139.74107 40306 ft 481 kts 312°
2026-04-20 17:26 65.97872 139.62410 40314 ft 482 kts 312°
2026-04-20 17:27 66.02276 139.50751 40316 ft 483 kts 312°
2026-04-20 17:27 66.06699 139.38977 40332 ft 483 kts 312°
2026-04-20 17:28 66.11116 139.27153 40338 ft 483 kts 312°
2026-04-20 17:28 66.15547 139.15228 40329 ft 483 kts 311°
2026-04-20 17:29 66.19921 139.03265 40332 ft 482 kts 311°
2026-04-20 17:29 66.24296 138.91196 40329 ft 481 kts 311°
2026-04-20 17:30 66.28680 138.79085 40320 ft 481 kts 311°
2026-04-20 17:30 66.32927 138.67236 40316 ft 480 kts 311°
2026-04-20 17:31 66.37248 138.55159 40306 ft 480 kts 311°
2026-04-20 17:31 66.41616 138.42845 40302 ft 480 kts 310°
2026-04-20 17:32 66.45887 138.30763 40301 ft 480 kts 310°
2026-04-20 17:32 66.50235 138.18374 40290 ft 480 kts 310°
2026-04-20 17:33 66.54451 138.06307 40302 ft 480 kts 310°
2026-04-20 17:33 66.58734 137.93967 40303 ft 480 kts 310°
2026-04-20 17:34 66.62992 137.81638 40298 ft 480 kts 310°
2026-04-20 17:34 66.67258 137.69208 40290 ft 480 kts 310°
2026-04-20 17:35 66.71532 137.56686 40287 ft 480 kts 309°
2026-04-20 17:35 66.75749 137.44278 40291 ft 479 kts 309°
2026-04-20 17:36 66.79990 137.31802 40287 ft 479 kts 309°
2026-04-20 17:36 66.84241 137.19171 40282 ft 479 kts 309°
2026-04-20 17:37 66.88443 137.06647 40275 ft 479 kts 309°
2026-04-20 17:37 66.92615 136.94115 40274 ft 479 kts 309°
2026-04-20 17:38 66.96880 136.81246 40267 ft 479 kts 309°
2026-04-20 17:38 67.01043 136.68603 40262 ft 479 kts 309°
2026-04-20 17:39 67.05196 136.55917 40262 ft 478 kts 309°
2026-04-20 17:39 67.09387 136.43042 40261 ft 478 kts 308°
2026-04-20 17:40 67.13528 136.30239 40259 ft 478 kts 308°
2026-04-20 17:40 67.17811 136.16926 40259 ft 477 kts 308°
2026-04-20 17:41 67.22067 136.03734 40259 ft 477 kts 309°
2026-04-20 17:41 67.26337 135.90672 40253 ft 477 kts 308°
2026-04-20 17:42 67.30590 135.77400 40256 ft 477 kts 308°
2026-04-20 17:42 67.34814 135.64259 40243 ft 477 kts 308°
2026-04-20 17:43 67.39036 135.50967 40244 ft 477 kts 308°
2026-04-20 17:43 67.43258 135.37640 40243 ft 477 kts 308°
2026-04-20 17:44 67.47444 135.24320 40245 ft 477 kts 308°
2026-04-20 17:44 67.51637 135.10908 40243 ft 477 kts 308°
2026-04-20 17:45 67.55827 134.97415 40243 ft 477 kts 307°
2026-04-20 17:45 67.59997 134.83904 40242 ft 477 kts 307°
2026-04-20 17:46 67.64049 134.70698 40241 ft 477 kts 307°
2026-04-20 17:46 67.68223 134.57816 40238 ft 476 kts 309°
2026-04-20 17:47 67.72391 134.44726 40235 ft 476 kts 309°
2026-04-20 17:47 67.76569 134.31794 40238 ft 476 kts 309°
2026-04-20 17:48 67.80691 134.18777 40245 ft 476 kts 308°
2026-04-20 17:48 67.84893 134.05545 40247 ft 476 kts 308°
2026-04-20 17:49 67.89041 133.92330 40248 ft 476 kts 308°
2026-04-20 17:49 67.93169 133.79145 40249 ft 476 kts 308°
2026-04-20 17:50 67.97299 133.65904 40248 ft 476 kts 308°
2026-04-20 17:50 68.01540 133.52713 40247 ft 476 kts 309°
2026-04-20 17:51 68.05643 133.39564 40247 ft 476 kts 308°
2026-04-20 17:51 68.09842 133.26223 40254 ft 476 kts 308°
2026-04-20 17:52 68.13917 133.12893 40253 ft 475 kts 307°
2026-04-20 17:52 68.17946 132.99360 40249 ft 475 kts 308°
2026-04-20 17:53 68.22017 132.85872 40256 ft 475 kts 307°
2026-04-20 17:53 68.26035 132.72253 40259 ft 475 kts 307°
2026-04-20 17:54 68.30136 132.58439 40257 ft 475 kts 307°
2026-04-20 17:54 68.34096 132.44892 40267 ft 475 kts 307°
2026-04-20 17:55 68.38141 132.31056 40267 ft 475 kts 307°
2026-04-20 17:55 68.42243 132.16875 40273 ft 475 kts 306°
2026-04-20 17:56 68.46321 132.02720 40272 ft 475 kts 306°
2026-04-20 17:56 68.50387 131.88495 40282 ft 474 kts 306°
2026-04-20 17:57 68.54439 131.74233 40279 ft 474 kts 306°
2026-04-20 17:57 68.58445 131.60036 40290 ft 474 kts 306°
2026-04-20 17:58 68.62471 131.45678 40297 ft 474 kts 306°
2026-04-20 17:58 68.66476 131.31299 40301 ft 474 kts 306°
2026-04-20 17:59 68.70453 131.16923 40302 ft 474 kts 306°
2026-04-20 17:59 68.74435 131.02435 40309 ft 474 kts 305°
2026-04-20 18:00 68.78410 130.87874 40305 ft 474 kts 305°
2026-04-20 18:00 68.82262 130.73674 40303 ft 474 kts 305°
2026-04-20 18:01 68.86124 130.59339 40295 ft 474 kts 305°
2026-04-20 18:01 68.89978 130.44939 40289 ft 474 kts 305°
2026-04-20 18:02 68.93759 130.30719 40295 ft 474 kts 304°
2026-04-20 18:02 68.97542 130.16396 40297 ft 474 kts 304°
2026-04-20 18:03 69.01368 130.01814 40295 ft 474 kts 304°
2026-04-20 18:03 69.05121 129.87414 40296 ft 474 kts 304°
2026-04-20 18:04 69.08923 129.72730 40286 ft 474 kts 304°
2026-04-20 18:04 69.12689 129.58087 40275 ft 474 kts 304°
2026-04-20 18:05 69.18348 129.35894 40258 ft 474 kts 304°
2026-04-20 18:05 69.22100 129.21050 40235 ft 475 kts 303°
2026-04-20 18:06 69.25684 129.06776 40228 ft 475 kts 303°
2026-04-20 18:06 69.29430 128.91838 40220 ft 474 kts 304°
2026-04-20 18:07 69.33205 128.76910 40213 ft 474 kts 303°
2026-04-20 18:07 69.36898 128.62030 40217 ft 474 kts 303°
2026-04-20 18:08 69.40559 128.47303 40214 ft 474 kts 303°
2026-04-20 18:08 69.44369 128.31783 40213 ft 474 kts 303°
2026-04-20 18:09 69.48143 128.16351 40212 ft 474 kts 303°
2026-04-20 18:09 69.51892 128.00881 40210 ft 474 kts 303°
2026-04-20 18:10 69.55007 127.87956 40205 ft 474 kts 303°
2026-04-20 18:10 69.59340 127.69839 40198 ft 474 kts 302°
2026-04-20 18:11 69.62428 127.56838 40197 ft 473 kts 302°
2026-04-20 18:11 69.66124 127.41172 40196 ft 473 kts 302°
2026-04-20 18:12 69.69807 127.25446 40188 ft 473 kts 302°
2026-04-20 18:12 69.73472 127.09682 40186 ft 473 kts 302°
2026-04-20 18:13 69.77101 126.93960 40183 ft 473 kts 302°
2026-04-20 18:13 69.80664 126.78411 40180 ft 473 kts 302°
2026-04-20 18:14 69.84152 126.63076 40181 ft 473 kts 301°
2026-04-20 18:14 69.87678 126.47467 40178 ft 472 kts 301°
2026-04-20 18:15 69.91180 126.31753 40183 ft 472 kts 301°
2026-04-20 18:15 69.94616 126.16072 40188 ft 472 kts 301°
2026-04-20 18:16 69.98077 126.00290 40195 ft 472 kts 300°
2026-04-20 18:16 70.01480 125.84559 40195 ft 472 kts 300°
2026-04-20 18:17 70.04899 125.68710 40193 ft 472 kts 300°
2026-04-20 18:17 70.08283 125.52856 40204 ft 472 kts 300°
2026-04-20 18:18 70.11678 125.36874 40209 ft 472 kts 300°
2026-04-20 18:18 70.15015 125.21015 40208 ft 472 kts 300°
2026-04-20 18:19 70.18401 125.04820 40216 ft 472 kts 299°
2026-04-20 18:19 70.21724 124.88798 40216 ft 472 kts 299°
2026-04-20 18:20 70.25080 124.72500 40219 ft 472 kts 299°
2026-04-20 18:20 70.28380 124.56347 40220 ft 472 kts 299°
2026-04-20 18:21 70.31671 124.40113 40226 ft 472 kts 298°
2026-04-20 18:21 70.34968 124.23728 40226 ft 472 kts 298°
2026-04-20 18:22 70.38230 124.07389 40232 ft 472 kts 298°
2026-04-20 18:22 70.41504 123.90862 40231 ft 472 kts 298°
2026-04-20 18:23 70.44700 123.74604 40234 ft 472 kts 298°
2026-04-20 18:23 70.47931 123.58042 40230 ft 472 kts 297°
2026-04-20 18:24 70.51151 123.41463 40232 ft 472 kts 298°
2026-04-20 18:24 70.54418 123.24904 40229 ft 472 kts 298°
2026-04-20 18:25 70.57616 123.08305 40233 ft 472 kts 297°
2026-04-20 18:25 70.60848 122.91564 40230 ft 472 kts 297°
2026-04-20 18:26 70.64050 122.74746 40235 ft 472 kts 297°
2026-04-20 18:26 70.67187 122.58201 40234 ft 473 kts 297°
2026-04-20 18:27 70.70389 122.41137 40239 ft 472 kts 297°
2026-04-20 18:27 70.73491 122.24491 40242 ft 472 kts 296°
2026-04-20 18:28 70.76664 122.07296 40241 ft 472 kts 296°
2026-04-20 18:28 70.79749 121.90453 40242 ft 472 kts 296°
2026-04-20 18:29 70.82831 121.73489 40241 ft 472 kts 296°
2026-04-20 18:29 70.85916 121.56359 40241 ft 472 kts 296°
2026-04-20 18:30 70.88970 121.39271 40241 ft 473 kts 295°
2026-04-20 18:30 70.91995 121.22204 40248 ft 473 kts 295°
2026-04-20 18:31 70.95048 121.04830 40246 ft 473 kts 295°
2026-04-20 18:31 70.98034 120.87700 40240 ft 474 kts 295°
2026-04-20 18:32 71.01031 120.70359 40243 ft 474 kts 295°
2026-04-20 18:32 71.04033 120.52839 40248 ft 474 kts 294°
2026-04-20 18:33 71.07025 120.35233 40248 ft 474 kts 294°
2026-04-20 18:33 71.09958 120.17771 40246 ft 474 kts 294°
2026-04-20 18:34 71.12936 119.99697 40248 ft 475 kts 294°
2026-04-20 18:34 71.15822 119.82169 40256 ft 475 kts 294°
2026-04-20 18:35 71.18742 119.64173 40249 ft 475 kts 293°
2026-04-20 18:35 71.21610 119.46407 40254 ft 475 kts 293°
2026-04-20 18:36 71.24469 119.28506 40254 ft 475 kts 293°
2026-04-20 18:36 71.27296 119.10709 40256 ft 475 kts 293°
2026-04-20 18:37 71.30139 118.92612 40255 ft 475 kts 292°
2026-04-20 18:37 71.32960 118.74505 40248 ft 476 kts 292°
2026-04-20 18:38 71.35779 118.56247 40253 ft 476 kts 292°
2026-04-20 18:38 71.38550 118.38132 40248 ft 476 kts 292°
2026-04-20 18:39 71.41364 118.19565 40254 ft 476 kts 292°
2026-04-20 18:39 71.44106 118.01307 40258 ft 476 kts 291°
2026-04-20 18:40 71.46825 117.83027 40255 ft 477 kts 291°
2026-04-20 18:40 71.49562 117.64462 40259 ft 477 kts 291°
2026-04-20 18:41 71.52284 117.45812 40258 ft 477 kts 291°
2026-04-20 18:41 71.54958 117.27287 40255 ft 477 kts 291°
2026-04-20 18:42 71.57644 117.08520 40262 ft 477 kts 290°
2026-04-20 18:42 71.60271 116.89977 40264 ft 477 kts 290°
2026-04-20 18:43 71.62922 116.71094 40265 ft 477 kts 290°
2026-04-20 18:43 71.65530 116.52313 40268 ft 477 kts 290°
2026-04-20 18:44 71.68124 116.33463 40271 ft 477 kts 290°
2026-04-20 18:44 71.70680 116.14702 40267 ft 477 kts 290°
2026-04-20 18:45 71.73255 115.95614 40275 ft 477 kts 289°
2026-04-20 18:45 71.75806 115.76509 40271 ft 478 kts 289°
2026-04-20 18:46 71.78290 115.57721 40276 ft 478 kts 289°
2026-04-20 18:46 71.80808 115.38480 40273 ft 478 kts 289°
2026-04-20 18:47 71.83262 115.19532 40279 ft 478 kts 289°
2026-04-20 18:47 71.85737 115.00227 40279 ft 478 kts 289°
2026-04-20 18:48 71.88172 114.81038 40282 ft 478 kts 288°
2026-04-20 18:48 71.90610 114.61620 40282 ft 479 kts 288°
2026-04-20 18:49 71.93012 114.42291 40282 ft 479 kts 288°
2026-04-20 18:49 71.95398 114.22869 40280 ft 480 kts 288°
2026-04-20 18:50 71.97804 114.03057 40285 ft 480 kts 288°
2026-04-20 18:50 72.00095 113.83593 40273 ft 480 kts 287°
2026-04-20 18:51 72.02414 113.63914 40282 ft 480 kts 287°
2026-04-20 18:51 72.04708 113.44093 40276 ft 480 kts 287°
2026-04-20 18:52 72.06983 113.24279 40285 ft 480 kts 287°
2026-04-20 18:52 72.09214 113.04602 40280 ft 480 kts 287°
2026-04-20 18:53 72.11441 112.84743 40282 ft 481 kts 287°
2026-04-20 18:53 72.13664 112.64697 40282 ft 481 kts 286°
2026-04-20 18:54 72.15868 112.44580 40283 ft 482 kts 286°
2026-04-20 18:54 72.18006 112.24842 40284 ft 482 kts 286°
2026-04-20 18:55 72.20196 112.04582 40284 ft 482 kts 286°
2026-04-20 18:55 72.22355 111.84462 40280 ft 482 kts 286°
2026-04-20 18:56 72.24502 111.64105 40279 ft 482 kts 286°
2026-04-20 18:56 72.26602 111.44051 40279 ft 482 kts 285°
2026-04-20 18:57 72.28730 111.23393 40275 ft 482 kts 285°
2026-04-20 18:57 72.30818 111.02943 40275 ft 483 kts 285°
2026-04-20 18:58 72.32845 110.82786 40271 ft 483 kts 285°
2026-04-20 18:58 72.34890 110.62233 40277 ft 483 kts 285°
2026-04-20 18:59 72.36923 110.41513 40275 ft 484 kts 285°
2026-04-20 18:59 72.38553 110.24719 40273 ft 484 kts 285°
2026-04-20 19:00 72.40889 110.00330 40278 ft 484 kts 284°
2026-04-20 19:00 72.42540 109.82864 40273 ft 484 kts 284°
2026-04-20 19:01 72.44476 109.62130 40275 ft 485 kts 284°
2026-04-20 19:01 72.46373 109.41541 40275 ft 485 kts 284°
2026-04-20 19:02 72.48284 109.20519 40273 ft 485 kts 284°
2026-04-20 19:02 72.50171 108.99472 40265 ft 485 kts 284°
2026-04-20 19:03 72.52035 108.78394 40259 ft 485 kts 283°
2026-04-20 19:03 72.53866 108.57394 40263 ft 485 kts 283°
2026-04-20 19:04 72.55671 108.36395 40264 ft 485 kts 283°
2026-04-20 19:04 72.57437 108.15560 40266 ft 485 kts 283°
2026-04-20 19:05 72.59198 107.94473 40265 ft 485 kts 283°
2026-04-20 19:05 72.60939 107.73332 40270 ft 485 kts 283°
2026-04-20 19:06 72.62688 107.51770 40271 ft 486 kts 282°
2026-04-20 19:06 72.64391 107.30448 40264 ft 486 kts 282°
2026-04-20 19:07 72.66054 107.09319 40266 ft 486 kts 282°
2026-04-20 19:07 72.67717 106.87849 40264 ft 486 kts 282°
2026-04-20 19:08 72.70152 106.55799 40265 ft 486 kts 282°
2026-04-20 19:09 72.71749 106.34365 40264 ft 486 kts 281°
2026-04-20 19:09 72.73325 106.12851 40265 ft 486 kts 281°
2026-04-20 19:10 72.74888 105.91169 40267 ft 486 kts 281°
2026-04-20 19:10 72.76421 105.69555 40268 ft 487 kts 281°
2026-04-20 19:11 72.77936 105.47807 40266 ft 487 kts 281°
2026-04-20 19:11 72.79418 105.26184 40260 ft 487 kts 280°
2026-04-20 19:12 72.80880 105.04472 40272 ft 488 kts 280°
2026-04-20 19:12 72.82320 104.82709 40270 ft 488 kts 280°
2026-04-20 19:13 72.83751 104.60685 40266 ft 488 kts 280°
2026-04-20 19:13 72.85155 104.38669 40262 ft 488 kts 279°
2026-04-20 19:14 72.86525 104.16790 40265 ft 488 kts 279°
2026-04-20 19:14 72.87855 103.95126 40267 ft 488 kts 279°
2026-04-20 19:15 72.89203 103.72769 40262 ft 489 kts 279°
2026-04-20 19:15 72.90493 103.50936 40267 ft 489 kts 279°
2026-04-20 19:16 72.91764 103.29002 40263 ft 489 kts 279°
2026-04-20 19:16 72.93028 103.06736 40266 ft 489 kts 278°
2026-04-20 19:17 72.94256 102.84643 40266 ft 489 kts 278°
2026-04-20 19:17 72.95470 102.62348 40264 ft 489 kts 278°
2026-04-20 19:18 72.96643 102.40341 40263 ft 489 kts 278°
2026-04-20 19:18 72.97814 102.17871 40258 ft 490 kts 278°
2026-04-20 19:19 72.98943 101.95720 40260 ft 490 kts 277°
2026-04-20 19:19 73.00067 101.73149 40261 ft 490 kts 277°
2026-04-20 19:20 73.01151 101.50884 40264 ft 490 kts 277°
2026-04-20 19:20 73.02220 101.28376 40260 ft 490 kts 277°
2026-04-20 19:21 73.03238 101.06413 40264 ft 490 kts 277°
2026-04-20 19:21 73.04286 100.83230 40260 ft 490 kts 277°
2026-04-20 19:22 73.05305 100.60090 40261 ft 490 kts 276°
2026-04-20 19:22 73.06297 100.36955 40264 ft 490 kts 276°
2026-04-20 19:23 73.07257 100.13920 40258 ft 490 kts 276°
2026-04-20 19:23 73.08198 99.90698 40264 ft 490 kts 276°
2026-04-20 19:24 73.09113 99.67440 40254 ft 491 kts 276°
2026-04-20 19:24 73.10002 99.44149 40259 ft 491 kts 276°
2026-04-20 19:25 73.10858 99.21006 40252 ft 491 kts 276°
2026-04-20 19:25 73.11696 98.97641 40264 ft 491 kts 275°
2026-04-20 19:26 73.12507 98.74240 40250 ft 492 kts 275°
2026-04-20 19:26 73.13287 98.50978 40252 ft 492 kts 275°
2026-04-20 19:27 73.14048 98.27472 40254 ft 492 kts 275°
2026-04-20 19:27 73.14775 98.04143 40252 ft 492 kts 275°
2026-04-20 19:28 73.15480 97.80677 40252 ft 492 kts 275°
2026-04-20 19:28 73.16159 97.57165 40252 ft 492 kts 274°
2026-04-20 19:29 73.16809 97.33696 40253 ft 492 kts 274°
2026-04-20 19:29 73.17435 97.10138 40249 ft 493 kts 274°
2026-04-20 19:30 73.18035 96.86507 40250 ft 493 kts 274°
2026-04-20 19:30 73.18607 96.62912 40251 ft 493 kts 274°
2026-04-20 19:31 73.19152 96.39287 40247 ft 493 kts 274°
2026-04-20 19:31 73.19667 96.15815 40248 ft 493 kts 273°
2026-04-20 19:32 73.20159 95.92153 40246 ft 493 kts 273°
2026-04-20 19:32 73.20624 95.68429 40247 ft 493 kts 273°
2026-04-20 19:33 73.21062 95.44752 40244 ft 493 kts 273°
2026-04-20 19:33 73.21469 95.21228 40246 ft 493 kts 272°
2026-04-20 19:34 73.21843 94.98145 40235 ft 494 kts 272°
2026-04-20 19:34 73.22190 94.75134 40228 ft 494 kts 272°
2026-04-20 19:35 73.22515 94.51826 40230 ft 494 kts 272°
2026-04-20 19:35 73.22810 94.28798 40229 ft 493 kts 272°
2026-04-20 19:36 73.23079 94.05871 40230 ft 493 kts 272°
2026-04-20 19:36 73.23324 93.82684 40233 ft 493 kts 271°
2026-04-20 19:37 73.23543 93.59644 40231 ft 493 kts 271°
2026-04-20 19:37 73.23734 93.36879 40232 ft 494 kts 271°
2026-04-20 19:38 73.23903 93.13569 40235 ft 494 kts 271°
2026-04-20 19:38 73.24045 92.90501 40235 ft 494 kts 271°
2026-04-20 19:39 73.24162 92.67142 40235 ft 494 kts 270°
2026-04-20 19:39 73.24252 92.44146 40237 ft 495 kts 270°
2026-04-20 19:40 73.24318 92.20536 40237 ft 495 kts 270°
2026-04-20 19:40 73.24356 91.97549 40235 ft 495 kts 270°
2026-04-20 19:41 73.24369 91.74227 40238 ft 495 kts 270°
2026-04-20 19:41 73.24356 91.51238 40234 ft 495 kts 270°
2026-04-20 19:42 73.24317 91.27694 40234 ft 495 kts 269°
2026-04-20 19:42 73.24252 91.04731 40235 ft 495 kts 269°
2026-04-20 19:43 73.24160 90.81349 40235 ft 495 kts 269°
2026-04-20 19:43 73.24044 90.58319 40235 ft 495 kts 269°
2026-04-20 19:44 73.23899 90.34809 40232 ft 495 kts 269°
2026-04-20 19:44 73.23729 90.11521 40233 ft 495 kts 269°
2026-04-20 19:45 73.23534 89.88316 40232 ft 495 kts 268°
2026-04-20 19:45 73.23312 89.65101 40235 ft 495 kts 268°
2026-04-20 19:46 73.23060 89.41556 40234 ft 495 kts 268°
2026-04-20 19:46 73.22787 89.18307 40234 ft 495 kts 268°
2026-04-20 19:47 73.22113 88.95398 40218 ft 495 kts 263°
2026-04-20 19:47 73.21310 88.72257 40221 ft 495 kts 264°
2026-04-20 19:48 73.20690 88.53078 40223 ft 495 kts 263°
2026-04-20 19:48 73.19850 88.30483 40219 ft 495 kts 263°
2026-04-20 19:49 73.18884 88.03352 40221 ft 496 kts 263°
2026-04-20 19:49 73.18000 87.80589 40219 ft 496 kts 263°
2026-04-20 19:50 73.17118 87.57623 40218 ft 496 kts 263°
2026-04-20 19:50 73.16344 87.38544 40216 ft 496 kts 262°
2026-04-20 19:51 73.15398 87.15490 40214 ft 496 kts 262°
2026-04-20 19:51 73.14420 86.92425 40214 ft 496 kts 262°
2026-04-20 19:52 73.13428 86.69601 40213 ft 496 kts 262°
2026-04-20 19:52 73.12402 86.46632 40216 ft 495 kts 262°
2026-04-20 19:53 73.11372 86.24155 40214 ft 496 kts 262°
2026-04-20 19:53 73.10288 86.01076 40215 ft 496 kts 262°
2026-04-20 19:54 73.09210 85.78694 40214 ft 496 kts 261°
2026-04-20 19:54 73.08072 85.55598 40211 ft 496 kts 261°
2026-04-20 19:55 73.06927 85.32947 40216 ft 496 kts 261°
2026-04-20 19:55 73.05751 85.10144 40214 ft 496 kts 261°
2026-04-20 19:56 73.04556 84.87545 40214 ft 496 kts 261°
2026-04-20 19:56 73.03336 84.64939 40220 ft 496 kts 261°
2026-04-20 19:57 73.02080 84.42192 40216 ft 496 kts 260°
2026-04-20 19:57 73.00807 84.19615 40216 ft 496 kts 260°
2026-04-20 19:58 72.99499 83.96892 40214 ft 496 kts 260°
2026-04-20 19:58 72.98180 83.74443 40214 ft 496 kts 259°
2026-04-20 19:59 72.96822 83.51796 40212 ft 496 kts 259°
2026-04-20 19:59 72.95456 83.29445 40212 ft 496 kts 259°
2026-04-20 20:00 72.94067 83.07164 40215 ft 496 kts 259°
2026-04-20 20:00 72.92651 82.84864 40212 ft 496 kts 259°
2026-04-20 20:01 72.91210 82.62606 40221 ft 496 kts 259°
2026-04-20 20:01 72.89746 82.40385 40216 ft 496 kts 258°
2026-04-20 20:02 72.88241 82.17975 40214 ft 496 kts 258°
2026-04-20 20:02 72.86718 81.95676 40227 ft 496 kts 258°
2026-04-20 20:03 72.85177 81.73517 40215 ft 496 kts 258°
2026-04-20 20:03 72.83607 81.51320 40224 ft 496 kts 258°
2026-04-20 20:04 72.82001 81.29030 40220 ft 496 kts 258°
2026-04-20 20:04 72.80397 81.07103 40223 ft 496 kts 257°
2026-04-20 20:05 72.78740 80.84842 40211 ft 496 kts 257°
2026-04-20 20:05 72.77078 80.62882 40208 ft 496 kts 257°
2026-04-20 20:06 72.75379 80.40783 40209 ft 497 kts 257°
2026-04-20 20:06 72.73662 80.18802 40210 ft 497 kts 257°
2026-04-20 20:07 72.71927 79.96938 40204 ft 497 kts 257°
2026-04-20 20:07 72.70173 79.75183 40201 ft 496 kts 256°
2026-04-20 20:08 72.68376 79.53221 40197 ft 496 kts 256°
2026-04-20 20:08 72.66571 79.31496 40201 ft 496 kts 256°
2026-04-20 20:09 72.64758 79.09999 40196 ft 496 kts 256°
2026-04-20 20:09 72.62898 78.88273 40195 ft 496 kts 256°
2026-04-20 20:10 72.61054 78.67035 40194 ft 497 kts 256°
2026-04-20 20:10 72.59140 78.45308 40192 ft 497 kts 255°
2026-04-20 20:11 72.57218 78.23792 40189 ft 497 kts 255°
2026-04-20 20:11 72.55239 78.01958 40187 ft 497 kts 255°
2026-04-20 20:12 72.53273 77.80561 40183 ft 497 kts 255°
2026-04-20 20:12 72.51286 77.59244 40185 ft 497 kts 255°
2026-04-20 20:13 72.48263 77.27344 40178 ft 497 kts 254°
2026-04-20 20:13 72.46236 77.06312 40183 ft 497 kts 254°
2026-04-20 20:14 72.44132 76.84757 40179 ft 497 kts 254°
2026-04-20 20:14 72.42019 76.63409 40176 ft 497 kts 254°
2026-04-20 20:15 72.39952 76.42789 40175 ft 497 kts 253°
2026-04-20 20:15 72.37779 76.21380 40174 ft 497 kts 253°
2026-04-20 20:16 72.35641 76.00595 40175 ft 497 kts 253°
2026-04-20 20:16 72.33425 75.79320 40169 ft 497 kts 253°
2026-04-20 20:17 72.31213 75.58345 40171 ft 497 kts 253°
2026-04-20 20:17 72.28962 75.37266 40166 ft 497 kts 253°
2026-04-20 20:18 72.26744 75.16759 40169 ft 497 kts 252°
2026-04-20 20:18 72.24436 74.95678 40168 ft 497 kts 252°
2026-04-20 20:19 72.22143 74.74991 40165 ft 497 kts 252°
2026-04-20 20:19 72.19806 74.54148 40163 ft 497 kts 252°
2026-04-20 20:20 72.17479 74.33646 40166 ft 497 kts 252°
2026-04-20 20:20 72.15076 74.12722 40155 ft 497 kts 252°
2026-04-20 20:21 72.12718 73.92424 40161 ft 497 kts 251°
2026-04-20 20:21 72.10341 73.72198 40154 ft 497 kts 251°
2026-04-20 20:22 72.07883 73.51523 40157 ft 497 kts 251°
2026-04-20 20:22 72.05447 73.31255 40158 ft 497 kts 251°
2026-04-20 20:23 72.02962 73.10821 40153 ft 497 kts 251°
2026-04-20 20:23 72.00452 72.90412 40153 ft 497 kts 250°
2026-04-20 20:24 71.97919 72.70040 40154 ft 497 kts 250°
2026-04-20 20:24 71.95385 72.49880 40144 ft 497 kts 250°
2026-04-20 20:25 71.92815 72.29665 40142 ft 497 kts 250°
2026-04-20 20:25 71.90232 72.09562 40134 ft 497 kts 250°
2026-04-20 20:26 71.87656 71.89735 40136 ft 497 kts 250°
2026-04-20 20:26 71.85038 71.69789 40131 ft 497 kts 249°
2026-04-20 20:27 71.82353 71.49549 40138 ft 497 kts 249°
2026-04-20 20:27 71.79746 71.30110 40134 ft 497 kts 249°
2026-04-20 20:28 71.77035 71.10103 40127 ft 497 kts 249°
2026-04-20 20:28 71.74306 70.90169 40129 ft 497 kts 249°
2026-04-20 20:29 71.71601 70.70613 40131 ft 497 kts 249°
2026-04-20 20:29 71.68838 70.50845 40130 ft 497 kts 248°
2026-04-20 20:30 71.66089 70.31372 40131 ft 497 kts 248°
2026-04-20 20:30 71.63346 70.12142 40131 ft 497 kts 248°
2026-04-20 20:31 71.60550 69.92724 40127 ft 497 kts 248°
2026-04-20 20:31 71.57753 69.73501 40133 ft 497 kts 248°
2026-04-20 20:32 71.54905 69.54114 40131 ft 497 kts 248°
2026-04-20 20:32 71.52063 69.34962 40135 ft 496 kts 247°
2026-04-20 20:33 71.49173 69.15665 40135 ft 496 kts 247°
2026-04-20 20:33 71.46299 68.96677 40134 ft 496 kts 247°
2026-04-20 20:34 71.43373 68.77508 40137 ft 496 kts 247°
2026-04-20 20:34 71.40458 68.58613 40132 ft 496 kts 246°
2026-04-20 20:35 71.37469 68.39409 40130 ft 496 kts 246°
2026-04-20 20:35 71.35018 68.23803 40134 ft 496 kts 246°
2026-04-20 20:36 71.32067 68.05169 40135 ft 495 kts 246°
2026-04-20 20:36 71.29070 67.86428 40133 ft 495 kts 246°
2026-04-20 20:37 71.26038 67.67636 40130 ft 496 kts 246°
2026-04-20 20:37 71.23023 67.49121 40132 ft 496 kts 246°
2026-04-20 20:38 71.19957 67.30472 40128 ft 496 kts 245°
2026-04-20 20:38 71.16878 67.11907 40131 ft 495 kts 245°
2026-04-20 20:39 71.13765 66.93310 40132 ft 496 kts 245°
2026-04-20 20:39 71.10650 66.74865 40128 ft 495 kts 245°
2026-04-20 20:40 71.07532 66.56574 40128 ft 495 kts 245°
2026-04-20 20:40 71.04351 66.38075 40125 ft 495 kts 245°
2026-04-20 20:41 71.01202 66.19924 40122 ft 495 kts 244°
2026-04-20 20:41 70.98036 66.01835 40124 ft 495 kts 244°
2026-04-20 20:42 70.94882 65.83975 40126 ft 495 kts 244°
2026-04-20 20:42 70.91205 65.66453 40134 ft 498 kts 234°
2026-04-20 20:43 70.86908 65.50448 40141 ft 498 kts 234°
2026-04-20 20:43 70.82885 65.34147 40137 ft 498 kts 235°
2026-04-20 20:44 70.78636 65.18133 40142 ft 499 kts 233°
2026-04-20 20:44 70.74520 65.02090 40141 ft 499 kts 235°
2026-04-20 20:45 70.70275 64.86037 40137 ft 500 kts 233°
2026-04-20 20:45 70.66066 64.70087 40132 ft 499 kts 234°
2026-04-20 20:46 70.61802 64.54072 40130 ft 499 kts 233°
2026-04-20 20:46 70.57525 64.38181 40129 ft 499 kts 233°
2026-04-20 20:47 70.53348 64.22691 40136 ft 498 kts 233°
2026-04-20 20:47 70.49032 64.06894 40132 ft 498 kts 233°
2026-04-20 20:48 70.44773 63.91338 40137 ft 498 kts 233°
2026-04-20 20:48 70.40440 63.75700 40132 ft 499 kts 233°
2026-04-20 20:49 70.36173 63.60355 40132 ft 499 kts 233°
2026-04-20 20:49 70.31856 63.44986 40131 ft 498 kts 232°
2026-04-20 20:50 70.27504 63.29574 40134 ft 498 kts 232°
2026-04-20 20:50 70.23135 63.14233 40130 ft 498 kts 232°
2026-04-20 20:51 70.18812 62.99149 40136 ft 498 kts 232°
2026-04-20 20:51 70.14400 62.83875 40138 ft 498 kts 232°
2026-04-20 20:52 70.09993 62.68721 40139 ft 498 kts 232°
2026-04-20 20:52 70.05576 62.53643 40145 ft 498 kts 232°
2026-04-20 20:53 70.01179 62.38737 40146 ft 498 kts 231°
2026-04-20 20:53 69.96776 62.23917 40143 ft 497 kts 231°
2026-04-20 20:54 69.92308 62.08983 40147 ft 497 kts 231°
2026-04-20 20:54 69.87949 61.94323 40145 ft 497 kts 232°
2026-04-20 20:55 69.83489 61.79504 40149 ft 497 kts 231°
2026-04-20 20:55 69.79068 61.64883 40147 ft 497 kts 231°
2026-04-20 20:56 69.74921 61.49493 40149 ft 492 kts 241°
2026-04-20 20:56 69.71614 61.32699 40160 ft 492 kts 243°
2026-04-20 20:57 69.68161 61.16725 40170 ft 493 kts 240°
2026-04-20 20:57 69.64720 61.00133 40164 ft 493 kts 242°
2026-04-20 20:58 69.61170 60.83539 40166 ft 494 kts 240°
2026-04-20 20:58 69.57683 60.67241 40162 ft 493 kts 242°
2026-04-20 20:59 69.54182 60.50962 40154 ft 493 kts 240°
2026-04-20 20:59 69.50627 60.34639 40159 ft 493 kts 241°
2026-04-20 21:00 69.47137 60.18465 40161 ft 493 kts 240°
2026-04-20 21:00 69.43553 60.02226 40163 ft 492 kts 240°
2026-04-20 21:01 69.40029 59.86186 40160 ft 492 kts 240°
2026-04-20 21:01 69.36490 59.70345 40158 ft 492 kts 240°
2026-04-20 21:02 69.32879 59.54192 40161 ft 492 kts 240°
2026-04-20 21:02 69.29319 59.38460 40161 ft 493 kts 240°
2026-04-20 21:03 69.25694 59.22509 40158 ft 493 kts 240°
2026-04-20 21:03 69.22099 59.06835 40161 ft 493 kts 239°
2026-04-20 21:04 69.18340 58.90908 40162 ft 493 kts 238°
2026-04-20 21:04 69.14620 58.75482 40163 ft 493 kts 239°
2026-04-20 21:05 69.10813 58.59939 40167 ft 493 kts 238°
2026-04-20 21:05 69.07061 58.44711 40164 ft 494 kts 238°
2026-04-20 21:06 69.03270 58.29397 40165 ft 494 kts 238°
2026-04-20 21:06 68.99387 58.13883 40165 ft 494 kts 238°
2026-04-20 21:07 68.95570 57.98676 40163 ft 494 kts 237°
2026-04-20 21:07 68.91717 57.83491 40167 ft 493 kts 237°
2026-04-20 21:08 68.87951 57.68042 40167 ft 492 kts 238°
2026-04-20 21:08 68.84174 57.52998 40169 ft 492 kts 238°
2026-04-20 21:09 68.80416 57.37641 40169 ft 492 kts 238°
2026-04-20 21:09 68.76638 57.22665 40175 ft 492 kts 237°
2026-04-20 21:10 68.72877 57.07628 40174 ft 493 kts 238°
2026-04-20 21:10 68.69023 56.92431 40169 ft 493 kts 237°
2026-04-20 21:11 68.65242 56.77433 40168 ft 492 kts 238°
2026-04-20 21:11 68.61381 56.62347 40170 ft 492 kts 237°
2026-04-20 21:12 68.57589 56.47565 40169 ft 492 kts 237°
2026-04-20 21:12 68.53721 56.32624 40174 ft 492 kts 237°
2026-04-20 21:13 68.49874 56.17846 40173 ft 492 kts 237°
2026-04-20 21:13 68.45969 56.02956 40173 ft 492 kts 237°
2026-04-20 21:14 68.42066 55.88175 40174 ft 492 kts 237°
2026-04-20 21:14 68.38215 55.73685 40175 ft 492 kts 236°
2026-04-20 21:15 68.34280 55.58981 40173 ft 492 kts 236°
2026-04-20 21:15 68.30326 55.44303 40174 ft 492 kts 236°
2026-04-20 21:16 68.26396 55.29815 40179 ft 492 kts 236°
2026-04-20 21:16 68.22449 55.15357 40182 ft 492 kts 236°
2026-04-20 21:17 68.18453 55.00818 40180 ft 492 kts 236°
2026-04-20 21:17 68.14464 54.86329 40176 ft 492 kts 236°
2026-04-20 21:18 68.10547 54.72186 40180 ft 492 kts 235°
2026-04-20 21:18 68.06494 54.57666 40181 ft 492 kts 235°
2026-04-20 21:19 68.02509 54.43465 40181 ft 492 kts 235°
2026-04-20 21:20 67.96475 54.22147 40185 ft 492 kts 235°
2026-04-20 21:20 67.93131 54.10430 40184 ft 492 kts 235°
2026-04-20 21:21 67.88420 53.94092 40181 ft 492 kts 234°
2026-04-20 21:21 67.84314 53.80074 40186 ft 492 kts 234°
2026-04-20 21:22 67.80235 53.66140 40183 ft 492 kts 234°
2026-04-20 21:22 67.76754 53.54387 40183 ft 492 kts 234°
2026-04-20 21:23 67.72039 53.38501 40189 ft 492 kts 234°
2026-04-20 21:23 67.68539 53.26818 40186 ft 492 kts 234°
2026-04-20 21:24 67.64504 53.13103 40166 ft 490 kts 238°
2026-04-20 21:24 67.61619 52.97350 40187 ft 485 kts 253°
2026-04-20 21:25 67.59577 52.81002 40190 ft 485 kts 253°
2026-04-20 21:25 67.57098 52.65226 40191 ft 486 kts 250°
2026-04-20 21:26 67.54775 52.48810 40193 ft 486 kts 252°
2026-04-20 21:26 67.52374 52.32947 40186 ft 487 kts 250°
2026-04-20 21:27 67.49954 52.16760 40184 ft 487 kts 252°
2026-04-20 21:27 67.47552 52.00809 40182 ft 487 kts 250°
2026-04-20 21:28 67.45000 51.84828 40179 ft 487 kts 250°
2026-04-20 21:28 67.42478 51.68827 40175 ft 487 kts 250°
2026-04-20 21:29 67.39956 51.53180 40177 ft 487 kts 250°
2026-04-20 21:29 67.37373 51.37147 40175 ft 486 kts 249°
2026-04-20 21:30 67.34827 51.21547 40177 ft 486 kts 249°
2026-04-20 21:30 67.32233 51.05747 40172 ft 486 kts 249°
2026-04-20 21:31 67.29621 50.89946 40184 ft 486 kts 249°
2026-04-20 21:31 67.27162 50.74474 40183 ft 486 kts 250°
2026-04-20 21:32 67.24556 50.58563 40174 ft 487 kts 249°
2026-04-20 21:32 67.21972 50.42764 40169 ft 487 kts 249°
2026-04-20 21:33 67.19385 50.27117 40180 ft 487 kts 249°
2026-04-20 21:33 67.16806 50.11670 40175 ft 487 kts 249°
2026-04-20 21:34 67.14156 49.95867 40177 ft 487 kts 249°
2026-04-20 21:34 67.11528 49.80372 40172 ft 487 kts 249°
2026-04-20 21:35 67.08890 49.64893 40177 ft 487 kts 248°
2026-04-20 21:35 67.06230 49.49456 40176 ft 487 kts 248°
2026-04-20 21:36 67.03547 49.33963 40173 ft 487 kts 248°
2026-04-20 21:36 67.00836 49.18461 40172 ft 487 kts 248°
2026-04-20 21:37 66.98134 49.03106 40174 ft 487 kts 248°
2026-04-20 21:37 66.95397 48.87693 40170 ft 487 kts 248°
2026-04-20 21:38 66.92640 48.72268 40181 ft 487 kts 248°
2026-04-20 21:38 66.89875 48.56930 40176 ft 487 kts 247°
2026-04-20 21:39 66.87114 48.41719 40172 ft 487 kts 247°
2026-04-20 21:39 66.84342 48.26553 40173 ft 487 kts 247°
2026-04-20 21:40 66.81532 48.11281 40170 ft 487 kts 247°
2026-04-20 21:40 66.78758 47.96331 40167 ft 487 kts 247°
2026-04-20 21:41 66.75882 47.80929 40167 ft 487 kts 246°
2026-04-20 21:41 66.72708 47.66497 40173 ft 489 kts 239°
2026-04-20 21:42 66.69138 47.52219 40174 ft 489 kts 241°
2026-04-20 21:42 66.65713 47.37797 40181 ft 489 kts 240°
2026-04-20 21:43 66.62158 47.23591 40180 ft 490 kts 240°
2026-04-20 21:43 66.58728 47.09502 40173 ft 490 kts 240°
2026-04-20 21:44 66.55176 46.95343 40170 ft 490 kts 239°
2026-04-20 21:44 66.51638 46.81119 40171 ft 490 kts 240°
2026-04-20 21:45 66.48129 46.67226 40164 ft 490 kts 239°
2026-04-20 21:45 66.44550 46.53082 40168 ft 490 kts 239°
2026-04-20 21:46 66.40962 46.39018 40177 ft 489 kts 239°
2026-04-20 21:46 66.37389 46.25098 40174 ft 489 kts 239°
2026-04-20 21:47 66.33776 46.11104 40175 ft 490 kts 239°
2026-04-20 21:47 66.30175 45.97260 40169 ft 490 kts 239°
2026-04-20 21:48 66.26553 45.83403 40167 ft 490 kts 239°
2026-04-20 21:48 66.22993 45.69883 40171 ft 490 kts 239°
2026-04-20 21:49 66.19353 45.56133 40161 ft 490 kts 238°
2026-04-20 21:49 66.15624 45.42146 40172 ft 490 kts 238°
2026-04-20 21:50 66.11985 45.28571 40173 ft 490 kts 238°
2026-04-20 21:50 66.08244 45.14712 40174 ft 491 kts 238°
2026-04-20 21:51 66.04587 45.01241 40173 ft 491 kts 238°
2026-04-20 21:51 66.00854 44.87579 40171 ft 491 kts 238°
2026-04-20 21:52 65.97110 44.73956 40174 ft 491 kts 238°
2026-04-20 21:52 65.93423 44.60625 40175 ft 491 kts 238°
2026-04-20 21:53 65.89613 44.46935 40177 ft 491 kts 237°
2026-04-20 21:53 65.85899 44.33668 40177 ft 491 kts 237°
2026-04-20 21:54 65.82012 44.20325 40185 ft 491 kts 235°
2026-04-20 21:54 65.78119 44.07339 40187 ft 491 kts 236°
2026-04-20 21:55 65.74197 43.94412 40188 ft 492 kts 235°
2026-04-20 21:55 65.70175 43.81227 40185 ft 493 kts 235°
2026-04-20 21:56 65.66234 43.68352 40188 ft 493 kts 235°
2026-04-20 21:56 65.62170 43.55202 40187 ft 493 kts 235°
2026-04-20 21:57 65.58162 43.42261 40189 ft 493 kts 234°
2026-04-20 21:57 65.54114 43.29307 40190 ft 493 kts 234°
2026-04-20 21:58 65.50088 43.16469 40185 ft 493 kts 234°
2026-04-20 21:58 65.46016 43.03598 40193 ft 493 kts 234°
2026-04-20 21:59 65.42004 42.90960 40194 ft 493 kts 234°
2026-04-20 21:59 65.37975 42.78362 40197 ft 493 kts 234°
2026-04-20 22:00 65.33769 42.65792 40196 ft 493 kts 230°
2026-04-20 22:00 65.29244 42.53992 40211 ft 494 kts 229°
2026-04-20 22:01 65.24810 42.42046 40210 ft 495 kts 230°
2026-04-20 22:01 65.20288 42.30208 40213 ft 496 kts 229°
2026-04-20 22:02 65.15925 42.18196 40206 ft 496 kts 231°
2026-04-20 22:02 65.11458 42.06175 40211 ft 496 kts 230°
2026-04-20 22:03 65.07060 41.94180 40213 ft 496 kts 230°
2026-04-20 22:03 65.02611 41.82250 40211 ft 496 kts 230°
2026-04-20 22:04 64.98167 41.70326 40213 ft 496 kts 230°
2026-04-20 22:04 64.93667 41.58366 40208 ft 496 kts 230°
2026-04-20 22:05 64.89217 41.46726 40212 ft 496 kts 230°
2026-04-20 22:05 64.84703 41.34912 40211 ft 496 kts 229°
2026-04-20 22:06 64.80242 41.23362 40220 ft 496 kts 229°
2026-04-20 22:06 64.75690 41.11592 40226 ft 496 kts 229°
2026-04-20 22:07 64.71167 40.99995 40227 ft 497 kts 229°
2026-04-20 22:07 64.66579 40.88268 40232 ft 497 kts 229°
2026-04-20 22:08 64.62033 40.76727 40231 ft 497 kts 229°
2026-04-20 22:08 64.57804 40.64797 40243 ft 494 kts 236°
2026-04-20 22:09 64.53886 40.51845 40242 ft 494 kts 235°
2026-04-20 22:09 64.49905 40.39542 40241 ft 495 kts 235°
2026-04-20 22:10 64.45946 40.26818 40230 ft 496 kts 235°
2026-04-20 22:10 64.42603 40.16433 40234 ft 496 kts 234°
2026-04-20 22:11 64.38587 40.03867 40237 ft 496 kts 235°
2026-04-20 22:11 64.33914 39.89366 40243 ft 497 kts 234°
2026-04-20 22:12 64.30562 39.79063 40237 ft 497 kts 234°
2026-04-20 22:12 64.26447 39.66505 40238 ft 497 kts 234°
2026-04-20 22:13 64.22355 39.54088 40241 ft 497 kts 234°
2026-04-20 22:13 64.18288 39.41809 40237 ft 497 kts 234°
2026-04-20 22:14 64.14228 39.29625 40234 ft 497 kts 234°
2026-04-20 22:14 64.10172 39.17508 40244 ft 497 kts 234°